This is the latest recevied weather packets stored in our database for station/object KV9E. If no packets are shown the sender has not sent any weather packets the latest 10 day(s).
| Time | Temp. | Humidity | Pressure | Rain* | Wind** | Luminosity | Snow |
|---|---|---|---|---|---|---|---|
| 1787784534 | 25° C | 79% | 1015.3 hPa | 0 mm | - | 59 W/m² | - |
| 1787784228 | 25° C | 81% | 1015.6 hPa | 0 mm | - | 57 W/m² | - |
| 1787783924 | 24.44° C | 79% | 1015.5 hPa | 0 mm | - | 64 W/m² | - |
| 1787783620 | 24.44° C | 79% | 1015.6 hPa | 0 mm | - | 65 W/m² | - |
| 1787783319 | 25° C | 80% | 1015.7 hPa | 0 mm | - | 79 W/m² | - |
| 1787783016 | 24.44° C | 83% | 1015.6 hPa | 0 mm | - | 93 W/m² | - |
| 1787782714 | 24.44° C | 83% | 1015.3 hPa | 0 mm | - | 87 W/m² | - |
| 1787782411 | 24.44° C | 82% | 1015.3 hPa | 0 mm | - | 77 W/m² | - |
| 1787782106 | 24.44° C | 79% | 1015.1 hPa | 0 mm | - | 77 W/m² | - |
| 1787781801 | 24.44° C | 78% | 1015.3 hPa | 0 mm | - | 80 W/m² | - |
| 1787781499 | 25° C | 76% | 1015.5 hPa | 0 mm | - | 84 W/m² | - |
| 1787781198 | 25° C | 77% | 1015.2 hPa | 0 mm | - | 87 W/m² | - |
| 1787780897 | 25° C | 76% | 1015.6 hPa | 0 mm | - | 85 W/m² | - |
| 1787780592 | 25° C | 76% | 1015.3 hPa | 0 mm | - | 75 W/m² | - |
| 1787780287 | 25° C | 74% | 1015.3 hPa | 0 mm | - | 74 W/m² | - |
| 1787779983 | 25.56° C | 72% | 1015.6 hPa | 0 mm | - | 78 W/m² | - |
| 1787779678 | 25.56° C | 73% | 1015.4 hPa | 0 mm | - | 83 W/m² | - |
| 1787779376 | 26.11° C | 72% | 1015.6 hPa | 0 mm | - | 90 W/m² | - |
| 1787779072 | 26.11° C | 70% | 1015.7 hPa | 0 mm | - | 112 W/m² | - |
| 1787778766 | 26.11° C | 72% | 1015.6 hPa | 0 mm | - | 129 W/m² | - |
| 1787778463 | 26.11° C | 70% | 1015.4 hPa | 0 mm | - | 145 W/m² | - |
| 1787778158 | 26.11° C | 69% | 1015.5 hPa | 0 mm | - | 161 W/m² | - |
| 1787777858 | 26.11° C | 72% | 1015.5 hPa | 0 mm | - | 196 W/m² | - |
| 1787777554 | 26.11° C | 73% | 1015.5 hPa | 0 mm | - | 190 W/m² | - |
| 1787777253 | 25.56° C | 73% | 1015.5 hPa | 0 mm | - | 150 W/m² | - |
* Rain latest hour (hover to see other rain measurements)
** Current wind speed in m/s (hover to see current wind gust speed)